Date_and_time,latitude,longitude,wind_speed,RelWindDirFrom,WindDirFrom,air_pressure,air_temperature,relative_humidity,Temp,platform_speed_wrt_ground,air_pressure_at_mean_sea_level,platform_orientation
2019-10-31 23:40,50.630445,-96.98077,6.2,8.1,207,981.66,-1.1,99,2.52,0.0,1009.43,90.0
2019-10-31 23:50,50.6304466666667,-96.9807683333333,5.9,7.9,208,981.66,-1.1,99,2.47,0.0,1009.44,90.0
2019-11-01 00:00,50.6304466666667,-96.98077,5.8,7.9,214,981.72,-1.1,99,2.45,0.0,1009.51,360.0
2019-11-01 00:10,50.6304466666667,-96.9807716666667,5.8,7.2,216,981.77,-1.1,99,2.44,0.0,1009.57,360.0
2019-11-01 00:20,50.6304483333333,-96.9807716666667,5.5,7.3,222,981.77,-1.1,99,2.44,0.0,1009.58,360.0
2019-11-01 00:30,50.6304483333333,-96.9807716666667,5.5,7.2,224,981.82,-1.1,99,2.43,0.0,1009.63,360.0
2019-11-01 00:40,50.6304483333333,-96.9807716666667,5.2,7.0,229,981.88,-1.0,99,2.43,0.0,1009.70,360.0
2019-11-01 00:50,50.6304483333333,-96.9807733333333,5.1,7.1,234,981.95,-1.0,99,2.41,0.0,1009.76,360.0
2019-11-01 01:00,50.6304483333333,-96.9807733333333,4.8,7.0,244,981.96,-0.9,99,2.35,0.0,1009.76,323.4
2019-11-01 01:10,50.6304483333333,-96.9807733333333,5.0,8.1,250,981.99,-0.8,99,2.35,0.0,1009.79,323.4
2019-11-01 01:20,50.6304483333333,-96.9807733333333,6.0,9.4,268,982.02,-0.7,99,2.35,0.0,1009.82,323.4
2019-11-01 01:30,50.6304483333333,-96.9807733333333,5.3,8.2,280,982.00,-0.6,98,2.33,0.0,1009.78,323.4
2019-11-01 01:40,50.6304483333333,-96.9807733333333,5.8,9.7,285,981.96,-0.5,96,2.34,0.0,1009.75,323.4
2019-11-01 01:50,50.6304483333333,-96.9807733333333,5.7,8.9,295,981.99,-0.5,94,2.35,0.0,1009.77,323.4
2019-11-01 02:00,50.6304466666667,-96.9807716666667,6.3,10.5,299,982.02,-0.6,93,2.38,0.0,1009.81,311.7
2019-11-01 02:10,50.6304466666667,-96.9807716666667,7.4,11.5,300,982.00,-0.6,93,2.41,0.0,1009.79,311.7
2019-11-01 02:20,50.630435,-96.980755,5.9,10.2,298,982.10,-0.7,94,2.41,0.0,1009.89,311.7
2019-11-01 02:30,50.6304366666667,-96.9807483333333,6.0,9.4,303,982.14,-0.7,93,2.40,0.0,1009.93,311.7
2019-11-01 02:40,50.6304483333333,-96.9807633333333,6.3,10.5,303,982.24,-0.7,93,2.37,0.0,1010.03,311.7
2019-11-01 02:50,50.6304483333333,-96.9807633333333,5.5,8.8,297,982.41,-0.7,93,2.35,0.0,1010.21,311.7
2019-11-01 03:00,50.6304483333333,-96.9807633333333,6.2,9.8,297,982.45,-0.7,93,2.37,0.0,1010.24,0.0
2019-11-01 03:10,50.6304466666667,-96.9807633333333,6.6,10.9,301,982.46,-0.8,94,2.38,0.0,1010.25,0.0
2019-11-01 03:20,50.6304483333333,-96.980765,5.4,8.7,304,982.50,-0.9,97,2.39,0.0,1010.29,0.0
2019-11-01 03:30,50.6304483333333,-96.980765,4.9,8.2,302,982.48,-1.0,99,2.40,0.0,1010.27,0.0
2019-11-01 03:40,50.6304483333333,-96.980765,6.0,9.0,302,982.43,-0.9,97,2.40,0.0,1010.21,0.0
2019-11-01 03:50,50.630455,-96.9807833333333,6.0,10.7,303,982.51,-0.8,94,2.38,0.0,1010.29,0.0
2019-11-01 04:00,50.6304583333333,-96.9807783333333,8.6,12.4,308,982.53,-0.8,92,2.37,0.0,1010.31,323.4
2019-11-01 04:10,50.630455,-96.9807733333333,7.9,12.5,305,982.58,-0.9,93,2.37,0.0,1010.38,323.4
2019-11-01 04:20,50.6304533333333,-96.9807716666667,7.5,12.5,295,982.58,-1.0,93,2.39,0.0,1010.38,323.4
2019-11-01 04:30,50.6304533333333,-96.98077,7.7,13.1,300,982.61,-1.0,91,2.38,0.0,1010.41,323.4
2019-11-01 04:40,50.6304533333333,-96.9807716666667,7.9,12.5,300,982.56,-0.9,88,2.39,0.0,1010.36,323.4
2019-11-01 04:50,50.6304516666667,-96.9807683333333,8.0,12.4,299,982.56,-0.9,87,2.40,0.0,1010.36,323.4
2019-11-01 05:00,50.6304533333333,-96.98077,8.9,15.0,303,982.66,-0.9,87,2.37,0.0,1010.46,48.3
2019-11-01 05:10,50.6304533333333,-96.98077,9.4,16.5,305,982.70,-0.9,86,2.35,0.0,1010.51,48.3
2019-11-01 05:20,50.6304516666667,-96.98077,8.6,13.8,302,982.85,-0.8,85,2.32,0.0,1010.66,48.3
2019-11-01 05:30,50.6304516666667,-96.9807683333333,7.7,11.2,302,982.91,-0.8,84,2.30,0.0,1010.72,48.3
2019-11-01 05:40,50.63045,-96.9807683333333,7.7,12.3,297,982.92,-0.8,84,2.31,0.0,1010.72,48.3
2019-11-01 05:50,50.63045,-96.9807683333333,8.5,14.6,295,983.05,-0.8,83,2.32,0.0,1010.86,48.3
2019-11-01 06:00,50.6304483333333,-96.9807683333333,8.5,13.4,302,983.11,-0.8,81,2.33,0.0,1010.92,0.0
2019-11-01 06:10,50.6304483333333,-96.9807683333333,7.5,12.3,297,983.22,-0.8,81,2.33,0.0,1011.04,0.0
2019-11-01 06:20,50.6304466666667,-96.9807766666667,6.0,9.6,293,983.27,-0.8,82,2.33,0.0,1011.10,0.0
2019-11-01 06:30,50.630445,-96.98077,6.3,9.2,296,983.31,-0.8,83,2.34,0.0,1011.14,0.0
2019-11-01 06:40,50.630435,-96.9807583333333,7.6,11.7,295,983.27,-0.8,82,2.35,0.0,1011.09,0.0
2019-11-01 06:50,50.6304416666667,-96.9807533333333,6.6,9.5,293,983.37,-0.8,82,2.34,0.0,1011.20,0.0
2019-11-01 07:00,50.6304416666667,-96.9807533333333,6.3,11.4,293,983.34,-0.8,81,2.33,0.0,1011.16,129.1
2019-11-01 07:10,50.6304483333333,-96.980765,7.4,11.9,295,983.35,-0.8,80,2.34,0.0,1011.17,129.1
2019-11-01 07:20,50.630445,-96.9807633333333,7.2,10.9,292,983.40,-0.8,79,2.33,0.0,1011.22,129.1
2019-11-01 07:30,50.6304733333333,-96.980775,7.0,11.1,297,983.45,-0.9,79,2.33,0.0,1011.28,129.1
2019-11-01 07:40,50.6304566666667,-96.9807783333333,7.0,11.9,295,983.54,-0.9,78,2.32,0.0,1011.37,129.1
2019-11-01 07:50,50.6304566666667,-96.980775,5.9,12.1,294,983.69,-0.9,78,2.30,0.0,1011.52,129.1
2019-11-01 08:00,50.630455,-96.9807716666667,6.4,9.9,285,983.84,-0.9,79,2.30,0.0,1011.68,270.0
2019-11-01 08:10,50.630455,-96.98077,5.9,9.9,282,984.00,-1.0,79,2.32,0.0,1011.84,270.0
2019-11-01 08:20,50.6304533333333,-96.9807683333333,6.0,10.2,280,984.05,-1.0,79,2.34,0.0,1011.90,270.0
2019-11-01 08:30,50.6304533333333,-96.98077,5.8,8.8,279,984.09,-0.9,79,2.34,0.0,1011.94,270.0
2019-11-01 08:40,50.6304533333333,-96.9807683333333,5.0,8.3,276,984.13,-1.0,79,2.30,0.0,1011.98,270.0
2019-11-01 08:50,50.63046,-96.98078,4.9,7.4,272,984.19,-1.0,80,2.30,0.0,1012.05,270.0
2019-11-01 09:00,50.6304583333333,-96.9807816666667,5.1,8.2,272,984.20,-1.0,80,2.30,0.0,1012.06,310.6
2019-11-01 09:10,50.6304583333333,-96.9807766666667,5.2,7.9,276,984.21,-1.0,80,2.29,0.0,1012.06,310.6
2019-11-01 09:20,50.630475,-96.980765,5.4,7.9,274,984.26,-1.0,80,2.28,0.0,1012.12,310.6
2019-11-01 09:30,50.6304516666667,-96.9807833333333,5.5,8.0,277,984.28,-1.0,79,2.29,0.0,1012.13,310.6
2019-11-01 09:40,50.6304333333333,-96.9807416666667,5.3,7.5,274,984.37,-1.0,79,2.29,0.0,1012.23,310.6
2019-11-01 09:50,50.63044,-96.980765,5.5,7.9,271,984.35,-1.0,79,2.29,0.0,1012.21,310.6
2019-11-01 10:00,50.6304433333333,-96.980765,6.1,8.7,270,984.38,-0.9,78,2.29,0.0,1012.24,270.0
2019-11-01 10:10,50.6304533333333,-96.980755,6.1,10.2,268,984.42,-0.9,78,2.31,0.0,1012.28,270.0
2019-11-01 10:20,50.6304516666667,-96.9807616666667,6.3,9.1,264,984.52,-0.9,77,2.31,0.0,1012.38,270.0
2019-11-01 10:30,50.6304516666667,-96.980765,6.9,10.5,263,984.64,-0.9,77,2.30,0.0,1012.51,270.0
2019-11-01 10:40,50.63045,-96.9807683333333,6.0,10.2,267,984.67,-0.9,78,2.28,0.0,1012.54,270.0
2019-11-01 10:50,50.6304483333333,-96.98077,5.9,10.1,267,984.70,-0.9,78,2.26,0.0,1012.57,270.0
2019-11-01 11:00,50.6304383333333,-96.980755,6.6,10.0,267,984.69,-0.9,78,2.26,0.0,1012.56,131.7
2019-11-01 11:10,50.6304366666667,-96.9807633333333,6.7,10.4,265,984.74,-0.9,79,2.26,0.0,1012.61,131.7
2019-11-01 11:20,50.630435,-96.980765,6.0,9.2,268,984.85,-0.9,80,2.26,0.0,1012.73,131.7
2019-11-01 11:30,50.630435,-96.980765,5.9,8.5,263,984.89,-0.9,81,2.26,0.0,1012.77,131.7
2019-11-01 11:40,50.6304333333333,-96.9807533333333,6.3,9.4,260,984.93,-0.9,82,2.26,0.0,1012.81,131.7
2019-11-01 11:50,50.63044,-96.9807783333333,6.8,10.6,259,984.97,-0.9,84,2.27,0.0,1012.85,131.7
2019-11-01 12:00,50.630445,-96.98078,6.7,9.7,259,985.00,-1.0,86,2.29,0.0,1012.88,360.0
2019-11-01 12:10,50.6304466666667,-96.9807783333333,6.8,9.4,259,984.98,-1.0,87,2.28,0.0,1012.86,360.0
2019-11-01 12:20,50.6304466666667,-96.9807766666667,6.8,10.5,262,985.01,-1.0,88,2.28,0.0,1012.89,360.0
2019-11-01 12:30,50.6304466666667,-96.9807766666667,6.9,10.9,263,985.01,-0.9,89,2.29,0.0,1012.89,360.0
2019-11-01 12:40,50.63044,-96.9807883333333,7.1,11.7,265,985.01,-0.9,88,2.28,0.0,1012.88,360.0
2019-11-01 12:50,50.6304433333333,-96.980775,7.3,11.4,268,985.03,-0.8,88,2.26,0.0,1012.90,360.0
2019-11-01 13:00,50.630445,-96.9807766666667,7.2,12.4,268,985.07,-0.8,87,2.25,0.0,1012.94,270.0
2019-11-01 13:10,50.6304566666667,-96.98079,6.3,9.9,266,985.17,-0.7,87,2.25,0.0,1013.04,270.0
2019-11-01 13:20,50.6304433333333,-96.9807683333333,6.9,10.6,264,985.16,-0.7,87,2.26,0.0,1013.03,270.0
2019-11-01 13:30,50.6304433333333,-96.9807666666667,6.1,9.0,261,985.14,-0.7,87,2.27,0.0,1013.01,270.0
2019-11-01 13:40,50.6304433333333,-96.9807633333333,6.2,9.4,265,985.16,-0.7,88,2.27,0.0,1013.03,270.0
2019-11-01 13:50,50.6304466666667,-96.9807666666667,6.1,9.5,264,985.23,-0.7,88,2.27,0.0,1013.10,270.0
2019-11-01 14:00,50.6304466666667,-96.98077,6.6,9.8,261,985.34,-0.7,89,2.25,0.0,1013.22,311.7
2019-11-01 14:10,50.6304366666667,-96.9807633333333,6.5,10.2,263,985.43,-0.6,89,2.21,0.0,1013.31,311.7
2019-11-01 14:20,50.63044,-96.9807716666667,6.8,9.9,265,985.52,-0.6,90,2.19,0.0,1013.39,311.7
2019-11-01 14:30,50.63044,-96.9807716666667,6.0,9.1,281,985.61,-0.5,90,2.18,0.0,1013.48,311.7
2019-11-01 14:40,50.6304416666667,-96.9807766666667,9.3,16.0,301,985.59,-0.4,87,2.19,0.0,1013.45,311.7
2019-11-01 14:50,50.630445,-96.9807766666667,9.0,14.1,304,985.67,-0.5,82,2.19,0.0,1013.54,311.7
2019-11-01 15:00,50.630465,-96.98075,7.9,12.9,308,985.76,-0.7,82,2.19,0.0,1013.64,33.4
2019-11-01 15:10,50.6304533333333,-96.9807616666667,7.2,11.2,303,985.82,-0.9,84,2.21,0.0,1013.71,33.4
2019-11-01 15:20,50.6304533333333,-96.9807716666667,7.0,10.2,294,985.86,-1.0,86,2.21,0.0,1013.76,33.4
2019-11-01 15:30,50.6304483333333,-96.98078,7.4,13.2,292,985.86,-1.0,86,2.21,0.0,1013.75,33.4
2019-11-01 15:40,50.6304633333333,-96.9807733333333,8.0,12.3,286,985.85,-0.9,85,2.20,0.0,1013.74,33.4
2019-11-01 15:50,50.630455,-96.980775,7.1,10.7,285,985.84,-0.7,84,2.20,0.0,1013.71,33.4
2019-11-01 16:00,50.630455,-96.9807683333333,7.6,12.8,287,985.92,-0.5,82,2.19,0.0,1013.78,14.5
2019-11-01 16:10,50.6304566666667,-96.98077,7.8,11.9,291,985.90,-0.2,80,2.18,0.0,1013.75,14.5
2019-11-01 16:20,50.6304483333333,-96.9807566666667,10.2,16.1,293,985.86,-0.1,76,2.18,0.0,1013.70,14.5
2019-11-01 16:30,50.6304516666667,-96.980765,9.2,15.0,296,985.94,-0.1,75,2.18,0.0,1013.77,14.5
2019-11-01 16:40,50.63045,-96.9807616666667,9.5,16.1,292,985.96,-0.0,74,2.18,0.0,1013.80,14.5
2019-11-01 16:50,50.63045,-96.98076,11.7,17.6,301,985.88,0.0,71,2.19,0.0,1013.72,14.5
2019-11-01 17:00,50.63045,-96.98076,11.0,17.2,303,985.99,0.1,71,2.20,0.0,1013.84,12.6
2019-11-01 17:10,50.6304516666667,-96.9807633333333,12.0,18.3,301,985.97,0.3,67,2.22,0.0,1013.82,12.6
2019-11-01 17:20,50.6304516666667,-96.9807616666667,11.9,18.0,305,986.05,0.2,66,2.24,0.0,1013.90,12.6
2019-11-01 17:30,50.6304533333333,-96.9807633333333,10.4,17.1,302,986.12,0.2,67,2.25,0.0,1013.97,12.6
2019-11-01 17:40,50.6304616666667,-96.9807716666667,9.8,15.6,300,986.17,0.0,69,2.25,0.0,1014.03,12.6
2019-11-01 17:50,50.6304483333333,-96.9807633333333,8.3,13.0,298,986.26,0.0,71,2.25,0.0,1014.10,12.6
2019-11-01 18:00,50.63042,-96.9807633333333,8.5,14.4,293,986.27,0.2,69,2.25,0.0,1014.09,184.3
2019-11-01 18:10,50.630425,-96.980765,10.6,16.5,299,986.20,0.3,65,2.25,0.0,1014.01,184.3
2019-11-01 18:20,50.6304266666667,-96.9807666666667,10.4,16.0,293,986.25,0.3,60,2.25,0.0,1014.05,184.3
2019-11-01 18:30,50.6304283333333,-96.9807683333333,11.5,16.9,293,986.26,0.5,56,2.25,0.0,1014.05,184.3
2019-11-01 18:40,50.63043,-96.98077,10.3,16.5,295,986.33,0.5,57,2.26,0.0,1014.12,184.3
2019-11-01 18:50,50.6304316666667,-96.98077,11.8,16.5,310,986.26,0.2,58,2.26,0.0,1014.06,184.3
2019-11-01 19:00,50.63043,-96.9807716666667,10.2,14.9,310,986.39,0.1,59,2.28,0.0,1014.19,193.3
2019-11-01 19:10,50.63043,-96.9807716666667,10.7,16.5,304,986.47,0.0,59,2.28,0.0,1014.28,193.3
2019-11-01 19:20,50.6304283333333,-96.9807716666667,9.6,16.9,306,986.60,0.0,61,2.28,0.0,1014.42,193.3
2019-11-01 19:30,50.6304283333333,-96.9807716666667,13.0,19.1,303,986.53,-0.2,61,2.29,0.0,1014.37,193.3
2019-11-01 19:40,50.6304283333333,-96.9807716666667,11.2,17.3,298,986.69,-0.4,64,2.29,0.0,1014.54,193.3
2019-11-01 19:50,50.6304283333333,-96.9807716666667,9.9,16.7,304,986.80,-0.5,69,2.29,0.0,1014.65,193.3
2019-11-01 20:00,50.6304266666667,-96.9807716666667,11.4,17.1,300,986.81,-0.7,72,2.30,0.0,1014.67,360.0
2019-11-01 20:10,50.6304266666667,-96.9807716666667,10.4,18.1,301,986.93,-0.8,74,2.30,0.0,1014.79,360.0
2019-11-01 20:20,50.6304266666667,-96.9807733333333,9.6,16.9,302,987.08,-0.8,75,2.31,0.0,1014.94,360.0
2019-11-01 20:30,50.630425,-96.9807733333333,11.4,18.8,302,987.08,-0.8,77,2.30,0.0,1014.94,360.0
2019-11-01 20:40,50.6304266666667,-96.9807733333333,11.2,16.6,300,987.18,-1.0,79,2.30,0.0,1015.06,360.0
2019-11-01 20:50,50.6304266666667,-96.9807733333333,10.1,16.8,304,987.39,-1.0,81,2.31,0.0,1015.28,360.0
2019-11-01 21:00,50.6304566666667,-96.98077,8.5,15.0,301,987.60,-1.0,84,2.32,0.0,1015.51,18.9
2019-11-01 21:10,50.6304333333333,-96.9807833333333,10.1,15.7,301,987.64,-1.1,83,2.32,0.0,1015.55,18.9
2019-11-01 21:20,50.63045,-96.9807783333333,10.8,15.7,301,987.70,-1.1,85,2.33,0.0,1015.63,18.9
2019-11-01 21:30,50.6304433333333,-96.9807766666667,9.0,13.2,295,987.91,-1.2,87,2.33,0.0,1015.86,18.9
2019-11-01 21:40,50.630415,-96.980775,8.7,14.8,295,987.97,-1.2,88,2.33,0.0,1015.93,18.9
2019-11-01 21:50,50.63042,-96.9807716666667,8.0,13.1,297,988.09,-1.2,88,2.34,0.0,1016.06,18.9
2019-11-01 22:00,50.63042,-96.9807716666667,9.0,12.6,301,988.12,-1.3,90,2.33,0.0,1016.09,142.0
2019-11-01 22:10,50.6304183333333,-96.980775,7.9,12.1,295,988.20,-1.3,90,2.32,0.0,1016.18,142.0
2019-11-01 22:20,50.63042,-96.9807766666667,8.6,15.1,299,988.21,-1.2,88,2.32,0.0,1016.18,142.0
2019-11-01 22:30,50.6304233333333,-96.980775,8.6,12.4,301,988.28,-1.1,86,2.33,0.0,1016.26,142.0
2019-11-01 22:40,50.630425,-96.980775,9.7,15.1,304,988.24,-1.1,86,2.32,0.0,1016.22,142.0
2019-11-01 22:50,50.630425,-96.980775,8.7,12.6,302,988.39,-1.2,87,2.32,0.0,1016.38,142.0
2019-11-01 23:00,50.6304233333333,-96.980775,7.7,11.2,298,988.55,-1.2,87,2.32,0.0,1016.55,90.0
2019-11-01 23:10,50.630415,-96.9807933333333,8.7,12.8,298,988.56,-1.2,86,2.31,0.0,1016.56,90.0
2019-11-01 23:20,50.63046,-96.9807716666667,9.4,15.8,297,988.63,-1.2,84,2.32,0.0,1016.64,90.0
2019-11-01 23:30,50.6304433333333,-96.9807616666667,8.7,14.2,298,988.70,-1.2,82,2.33,0.0,1016.71,90.0
2019-11-01 23:40,50.6304416666667,-96.980765,8.5,15.0,299,988.73,-1.2,82,2.33,0.0,1016.74,90.0
